Time,TemperatureF,DewpointF,PressureIn,WindDirection,WindDirectionDegrees,WindSpeedMPH,WindSpeedGustMPH,Humidity,HourlyPrecipIn,Conditions,Clouds,dailyrainin,SoftwareType,DateUTC
2013-05-06 00:03:00,-999.0,-99.9,29.88,North,-999,-999.0,-999.0,-999,0.00,,,0.00,weatherlink.com 1.10,2013-05-06 05:03:00,
2013-05-06 00:18:00,-999.0,-99.9,29.87,North,-999,-999.0,-999.0,-999,0.00,,,0.00,weatherlink.com 1.10,2013-05-06 05:18:00,
2013-05-06 00:33:00,-999.0,-99.9,29.86,North,-999,-999.0,-999.0,-999,0.00,,,0.00,weatherlink.com 1.10,2013-05-06 05:33:00,
2013-05-06 00:49:00,-999.0,-99.9,29.86,North,-999,-999.0,-999.0,-999,0.00,,,0.00,weatherlink.com 1.10,2013-05-06 05:49:00,
2013-05-06 01:04:00,-999.0,-99.9,29.87,North,-999,-999.0,-999.0,-999,0.00,,,0.00,weatherlink.com 1.10,2013-05-06 06:04:00,
2013-05-06 01:19:00,-999.0,-99.9,29.86,North,-999,-999.0,-999.0,-999,0.00,,,0.00,weatherlink.com 1.10,2013-05-06 06:19:00,
2013-05-06 01:34:00,-999.0,-99.9,29.86,North,-999,-999.0,-999.0,-999,0.00,,,0.00,weatherlink.com 1.10,2013-05-06 06:34:00,
2013-05-06 01:49:00,-999.0,-99.9,29.85,North,-999,-999.0,-999.0,-999,0.00,,,0.00,weatherlink.com 1.10,2013-05-06 06:49:00,
2013-05-06 02:04:00,-999.0,-99.9,29.85,North,-999,-999.0,-999.0,-999,0.00,,,0.00,weatherlink.com 1.10,2013-05-06 07:04:00,
2013-05-06 02:19:00,-999.0,-99.9,29.85,North,-999,-999.0,-999.0,-999,0.00,,,0.00,weatherlink.com 1.10,2013-05-06 07:19:00,
2013-05-06 02:34:00,-999.0,-99.9,29.86,North,-999,-999.0,-999.0,-999,0.00,,,0.00,weatherlink.com 1.10,2013-05-06 07:34:00,
2013-05-06 02:49:00,-999.0,-99.9,29.86,North,-999,-999.0,-999.0,-999,0.00,,,0.00,weatherlink.com 1.10,2013-05-06 07:49:00,
2013-05-06 03:04:00,-999.0,-99.9,29.85,North,-999,-999.0,-999.0,-999,0.00,,,0.00,weatherlink.com 1.10,2013-05-06 08:04:00,
2013-05-06 03:19:00,-999.0,-99.9,29.86,North,-999,-999.0,-999.0,-999,0.00,,,0.00,weatherlink.com 1.10,2013-05-06 08:19:00,
2013-05-06 03:34:00,-999.0,-99.9,29.86,North,-999,-999.0,-999.0,-999,0.00,,,0.00,weatherlink.com 1.10,2013-05-06 08:34:00,
2013-05-06 03:49:00,-999.0,-99.9,29.86,North,-999,-999.0,-999.0,-999,0.00,,,0.00,weatherlink.com 1.10,2013-05-06 08:49:00,
2013-05-06 04:05:00,-999.0,-99.9,29.86,North,-999,-999.0,-999.0,-999,0.00,,,0.00,weatherlink.com 1.10,2013-05-06 09:05:00,
2013-05-06 04:20:00,-999.0,-99.9,29.86,North,-999,-999.0,-999.0,-999,0.00,,,0.00,weatherlink.com 1.10,2013-05-06 09:20:00,
2013-05-06 04:35:00,-999.0,-99.9,29.86,North,-999,-999.0,-999.0,-999,0.00,,,0.00,weatherlink.com 1.10,2013-05-06 09:35:00,
2013-05-06 04:50:00,-999.0,-99.9,29.85,North,-999,-999.0,-999.0,-999,0.00,,,0.00,weatherlink.com 1.10,2013-05-06 09:50:00,
2013-05-06 05:05:00,-999.0,-99.9,29.86,North,-999,-999.0,-999.0,-999,0.00,,,0.00,weatherlink.com 1.10,2013-05-06 10:05:00,
2013-05-06 05:20:00,-999.0,-99.9,29.86,North,-999,-999.0,-999.0,-999,0.00,,,0.00,weatherlink.com 1.10,2013-05-06 10:20:00,
2013-05-06 05:35:00,-999.0,-99.9,29.86,North,-999,-999.0,-999.0,-999,0.00,,,0.00,weatherlink.com 1.10,2013-05-06 10:35:00,
2013-05-06 05:50:00,-999.0,-99.9,29.86,North,-999,-999.0,-999.0,-999,0.00,,,0.00,weatherlink.com 1.10,2013-05-06 10:50:00,
2013-05-06 06:05:00,-999.0,-99.9,29.87,North,-999,-999.0,-999.0,-999,0.00,,,0.00,weatherlink.com 1.10,2013-05-06 11:05:00,
2013-05-06 06:20:00,-999.0,-99.9,29.87,North,-999,-999.0,-999.0,-999,0.00,,,0.00,weatherlink.com 1.10,2013-05-06 11:20:00,
2013-05-06 06:35:00,-999.0,-99.9,29.88,North,-999,-999.0,-999.0,-999,0.00,,,0.00,weatherlink.com 1.10,2013-05-06 11:35:00,
2013-05-06 06:50:00,-999.0,-99.9,29.88,North,-999,-999.0,-999.0,-999,0.00,,,0.00,weatherlink.com 1.10,2013-05-06 11:50:00,
2013-05-06 07:05:00,-999.0,-99.9,29.88,North,-999,-999.0,-999.0,-999,0.00,,,0.00,weatherlink.com 1.10,2013-05-06 12:05:00,
2013-05-06 07:20:00,-999.0,-99.9,29.89,North,-999,-999.0,-999.0,-999,0.00,,,0.00,weatherlink.com 1.10,2013-05-06 12:20:00,
2013-05-06 07:36:00,-999.0,-99.9,29.89,North,-999,-999.0,-999.0,-999,0.00,,,0.00,weatherlink.com 1.10,2013-05-06 12:36:00,
2013-05-06 07:51:00,55.2,54.0,29.89,North,349,3.0,8.0,95,0.00,,,0.00,weatherlink.com 1.10,2013-05-06 12:51:00,
2013-05-06 08:06:00,55.2,54.0,29.90,NNE,13,1.0,7.0,95,0.00,,,0.00,weatherlink.com 1.10,2013-05-06 13:06:00,
2013-05-06 08:21:00,55.5,54.0,29.90,NNE,19,3.0,10.0,96,0.00,,,0.00,weatherlink.com 1.10,2013-05-06 13:21:00,
2013-05-06 08:36:00,55.9,55.0,29.90,North,350,4.0,8.0,95,0.00,,,0.00,weatherlink.com 1.10,2013-05-06 13:36:00,
2013-05-06 08:51:00,56.2,55.0,29.90,NNE,17,2.0,8.0,94,0.00,,,0.00,weatherlink.com 1.10,2013-05-06 13:51:00,
2013-05-06 09:06:00,56.8,55.0,29.89,North,355,7.0,9.0,94,0.00,,,0.00,weatherlink.com 1.10,2013-05-06 14:06:00,
2013-05-06 09:21:00,56.8,55.0,29.90,North,360,3.0,10.0,93,0.00,,,0.00,weatherlink.com 1.10,2013-05-06 14:21:00,
2013-05-06 09:36:00,57.0,55.0,29.90,NNW,341,3.0,8.0,93,0.00,,,0.00,weatherlink.com 1.10,2013-05-06 14:36:00,
2013-05-06 09:51:00,56.9,55.0,29.91,North,360,4.0,10.0,93,0.00,,,0.00,weatherlink.com 1.10,2013-05-06 14:51:00,
2013-05-06 10:06:00,57.3,55.0,29.91,North,355,5.0,9.0,93,0.00,,,0.00,weatherlink.com 1.10,2013-05-06 15:06:00,
2013-05-06 10:21:00,58.6,56.0,29.91,NNW,342,3.0,10.0,91,0.00,,,0.00,weatherlink.com 1.10,2013-05-06 15:21:00,
2013-05-06 10:36:00,58.2,56.0,29.91,North,355,6.0,11.0,91,0.00,,,0.00,weatherlink.com 1.10,2013-05-06 15:36:00,
2013-05-06 10:51:00,58.8,56.0,29.91,NNW,342,8.0,10.0,91,0.00,,,0.00,weatherlink.com 1.10,2013-05-06 15:51:00,
2013-05-06 11:06:00,59.9,57.0,29.91,North,5,5.0,9.0,90,0.00,,,0.00,weatherlink.com 1.10,2013-05-06 16:06:00,
2013-05-06 11:21:00,61.2,58.0,29.91,ENE,57,4.0,8.0,88,0.00,,,0.00,weatherlink.com 1.10,2013-05-06 16:21:00,
2013-05-06 11:36:00,62.2,58.0,29.91,North,5,4.0,6.0,86,0.00,,,0.00,weatherlink.com 1.10,2013-05-06 16:36:00,
2013-05-06 11:51:00,63.2,60.0,29.90,NNE,30,2.0,7.0,88,0.00,,,0.00,weatherlink.com 1.10,2013-05-06 16:51:00,
2013-05-06 12:06:00,62.3,58.0,29.90,NNE,13,4.0,8.0,85,0.00,,,0.00,weatherlink.com 1.10,2013-05-06 17:06:00,
2013-05-06 12:21:00,62.5,58.0,29.90,NE,37,6.0,10.0,85,0.00,,,0.00,weatherlink.com 1.10,2013-05-06 17:21:00,
2013-05-06 12:36:00,63.8,59.0,29.89,NNW,346,5.0,9.0,83,0.00,,,0.00,weatherlink.com 1.10,2013-05-06 17:36:00,
2013-05-06 12:51:00,64.3,59.0,29.89,NNW,346,6.0,10.0,84,0.00,,,0.00,weatherlink.com 1.10,2013-05-06 17:51:00,
2013-05-06 13:06:00,63.6,58.0,29.89,NNW,343,5.0,9.0,83,0.00,,,0.00,weatherlink.com 1.10,2013-05-06 18:06:00,
2013-05-06 13:21:00,63.2,58.0,29.90,North,350,7.0,11.0,83,0.00,,,0.00,weatherlink.com 1.10,2013-05-06 18:21:00,
2013-05-06 13:36:00,62.6,57.0,29.90,NNE,32,3.0,8.0,83,0.00,,,0.00,weatherlink.com 1.10,2013-05-06 18:36:00,
2013-05-06 13:51:00,62.1,57.0,29.90,NNE,24,2.0,6.0,83,0.00,,,0.00,weatherlink.com 1.10,2013-05-06 18:51:00,
2013-05-06 14:06:00,62.1,57.0,29.90,North,10,2.0,5.0,84,0.00,,,0.00,weatherlink.com 1.10,2013-05-06 19:06:00,
2013-05-06 14:21:00,62.0,57.0,29.90,North,360,0.0,5.0,84,0.00,,,0.00,weatherlink.com 1.10,2013-05-06 19:21:00,
2013-05-06 14:36:00,62.7,58.0,29.90,North,360,2.0,4.0,85,0.00,,,0.00,weatherlink.com 1.10,2013-05-06 19:36:00,
2013-05-06 14:51:00,63.0,58.0,29.90,NNW,337,3.0,8.0,84,0.00,,,0.00,weatherlink.com 1.10,2013-05-06 19:51:00,
2013-05-06 15:06:00,62.3,58.0,29.90,NNE,12,3.0,8.0,86,0.00,,,0.00,weatherlink.com 1.10,2013-05-06 20:06:00,
2013-05-06 15:21:00,62.5,59.0,29.89,North,350,5.0,5.0,87,0.00,,,0.00,weatherlink.com 1.10,2013-05-06 20:21:00,
2013-05-06 15:36:00,62.9,59.0,29.89,NNW,348,6.0,6.0,86,0.00,,,0.00,weatherlink.com 1.10,2013-05-06 20:36:00,
2013-05-06 15:51:00,62.6,59.0,29.89,NNW,342,6.0,8.0,87,0.00,,,0.00,weatherlink.com 1.10,2013-05-06 20:51:00,
2013-05-06 16:06:00,61.5,58.0,29.89,North,5,3.0,13.0,88,0.01,,,0.01,weatherlink.com 1.10,2013-05-06 21:06:00,
2013-05-06 16:21:00,60.7,58.0,29.89,NNW,344,6.0,8.0,91,0.01,,,0.01,weatherlink.com 1.10,2013-05-06 21:21:00,
2013-05-06 16:36:00,61.0,58.0,29.89,NNW,327,4.0,8.0,90,0.01,,,0.01,weatherlink.com 1.10,2013-05-06 21:36:00,
2013-05-06 16:51:00,61.3,58.0,29.89,NNW,333,3.0,7.0,90,0.01,,,0.01,weatherlink.com 1.10,2013-05-06 21:51:00,
2013-05-06 17:06:00,62.1,59.0,29.89,North,355,4.0,7.0,88,0.00,,,0.01,weatherlink.com 1.10,2013-05-06 22:06:00,
2013-05-06 17:21:00,62.3,58.0,29.89,North,349,2.0,6.0,87,0.00,,,0.01,weatherlink.com 1.10,2013-05-06 22:21:00,
2013-05-06 17:36:00,62.4,59.0,29.89,North,349,3.0,5.0,87,0.00,,,0.01,weatherlink.com 1.10,2013-05-06 22:36:00,
2013-05-06 17:51:00,62.8,59.0,29.89,NNW,342,6.0,8.0,87,0.00,,,0.01,weatherlink.com 1.10,2013-05-06 22:51:00,
2013-05-06 18:06:00,62.7,59.0,29.89,North,355,3.0,4.0,86,0.00,,,0.01,weatherlink.com 1.10,2013-05-06 23:06:00,
2013-05-06 18:21:00,62.9,59.0,29.89,NNW,337,1.0,4.0,86,0.00,,,0.01,weatherlink.com 1.10,2013-05-06 23:21:00,
2013-05-06 18:36:00,62.8,58.0,29.90,NNW,337,4.0,5.0,85,0.00,,,0.01,weatherlink.com 1.10,2013-05-06 23:36:00,
2013-05-06 18:51:00,62.7,59.0,29.91,North,5,0.0,6.0,86,0.00,,,0.01,weatherlink.com 1.10,2013-05-06 23:51:00,
2013-05-06 19:06:00,62.5,58.0,29.90,North,360,4.0,5.0,86,0.00,,,0.01,weatherlink.com 1.10,2013-05-07 00:06:00,
2013-05-06 19:21:00,62.2,58.0,29.90,NW,326,3.0,7.0,86,0.00,,,0.01,weatherlink.com 1.10,2013-05-07 00:21:00,
2013-05-06 19:36:00,61.8,58.0,29.90,NW,326,3.0,5.0,87,0.00,,,0.01,weatherlink.com 1.10,2013-05-07 00:36:00,
2013-05-06 19:51:00,61.4,58.0,29.91,NW,326,2.0,5.0,88,0.00,,,0.01,weatherlink.com 1.10,2013-05-07 00:51:00,
2013-05-06 20:06:00,61.5,58.0,29.91,NW,326,1.0,5.0,88,0.00,,,0.01,weatherlink.com 1.10,2013-05-07 01:06:00,
2013-05-06 20:22:00,-999.0,-99.9,29.91,North,-999,-999.0,-999.0,-999,0.00,,,0.01,weatherlink.com 1.10,2013-05-07 01:22:00,
2013-05-06 20:37:00,-999.0,-99.9,29.92,North,-999,-999.0,-999.0,-999,0.00,,,0.01,weatherlink.com 1.10,2013-05-07 01:37:00,
2013-05-06 20:52:00,-999.0,-99.9,29.92,North,-999,-999.0,-999.0,-999,0.00,,,0.01,weatherlink.com 1.10,2013-05-07 01:52:00,
2013-05-06 21:07:00,-999.0,-99.9,29.92,North,-999,-999.0,-999.0,-999,0.00,,,0.01,weatherlink.com 1.10,2013-05-07 02:07:00,
2013-05-06 21:22:00,-999.0,-99.9,29.93,North,-999,-999.0,-999.0,-999,0.00,,,0.01,weatherlink.com 1.10,2013-05-07 02:22:00,
2013-05-06 21:37:00,-999.0,-99.9,29.93,North,-999,-999.0,-999.0,-999,0.00,,,0.01,weatherlink.com 1.10,2013-05-07 02:37:00,
2013-05-06 21:52:00,-999.0,-99.9,29.93,North,-999,-999.0,-999.0,-999,0.00,,,0.01,weatherlink.com 1.10,2013-05-07 02:52:00,
2013-05-06 22:07:00,-999.0,-99.9,29.94,North,-999,-999.0,-999.0,-999,0.00,,,0.01,weatherlink.com 1.10,2013-05-07 03:07:00,
2013-05-06 22:22:00,-999.0,-99.9,29.94,North,-999,-999.0,-999.0,-999,0.00,,,0.01,weatherlink.com 1.10,2013-05-07 03:22:00,
2013-05-06 22:37:00,-999.0,-99.9,29.94,North,-999,-999.0,-999.0,-999,0.00,,,0.01,weatherlink.com 1.10,2013-05-07 03:37:00,
2013-05-06 22:52:00,-999.0,-99.9,29.93,North,-999,-999.0,-999.0,-999,0.00,,,0.01,weatherlink.com 1.10,2013-05-07 03:52:00,
2013-05-06 23:07:00,-999.0,-99.9,29.94,North,-999,-999.0,-999.0,-999,0.00,,,0.01,weatherlink.com 1.10,2013-05-07 04:07:00,
2013-05-06 23:22:00,-999.0,-99.9,29.94,North,-999,-999.0,-999.0,-999,0.00,,,0.01,weatherlink.com 1.10,2013-05-07 04:22:00,
2013-05-06 23:38:00,-999.0,-99.9,29.93,North,-999,-999.0,-999.0,-999,0.00,,,0.01,weatherlink.com 1.10,2013-05-07 04:38:00,
2013-05-06 23:53:00,-999.0,-99.9,29.93,North,-999,-999.0,-999.0,-999,0.00,,,0.01,weatherlink.com 1.10,2013-05-07 04:53:00,